Falconsat-3
1 30776U 07006E 18193.18752410 +.00001576 +00000-0 +47424-4 0 9990
2 30776 035.4357 107.5806 0003879 262.2128 097.8158 15.34629621628169
CO-65
1 32785U 08021C 18193.46436304 +.00000159 +00000-0 +22890-4 0 9998
2 32785 097.5465 204.4353 0012016 320.3456 039.6881 14.88143347552861
AAUSAT2
1 32788U 08021F 18193.53274340 +.00000333 +00000-0 +35963-4 0 9998
2 32788 097.5202 218.9814 0010248 262.5951 097.4106 14.94385155553862
DO-64
1 32789U 08021G 18193.15895990 .00001392 00000-0 99188-4 0 9992
2 32789 97.5105 247.3348 0011793 205.5374 154.5272 15.06148093555543
CO-66
1 32791U 08021J 18193.31035563 .00000275 00000-0 33451-4 0 9995
2 32791 97.5352 209.7037 0011918 298.5297 61.4722 14.90583406553257
RS-30
1 32953U 08025A 18193.79431598 .00000019 00000-0 61157-4 0 9999
2 32953 82.5033 356.7499 0019679 152.0193 208.1949 12.43084263459959
PRISM
1 33493U 09002B 18193.71430328 -.00000099 00000-0 -31281-5 0 9993
2 33493 98.1294 96.7866 0013812 231.8834 128.1112 14.96259679514164
NOAA-19
1 33591U 09005A 18193.50308784 +.00000081 +00000-0 +69081-4 0 9999
2 33591 099.1433 172.0345 0012910 255.1042 104.8699 14.12292227485484
TISAT-1
1 36799U 10035E 18193.35258623 +.00000185 +00000-0 +24900-4 0 9992
2 36799 098.1098 330.2399 0013597 122.9662 237.2865 14.90830334433708
JUGNU
1 37839U 11058B 18193.56807831 +.00000306 +00000-0 +21435-4 0 9993
2 37839 019.9606 243.3475 0018922 166.1610 292.3042 14.12623161348851
SRMSAT
1 37841U 11058D 18193.55456840 +.00000299 +00000-0 +19478-4 0 9990
2 37841 019.9724 293.1578 0012044 049.1293 059.9266 14.10609639348372
AO-71
1 37854U 11061E 18193.66733585 .00000531 00000-0 35842-4 0 9996
2 37854 101.7021 271.6795 0163304 357.9810 2.0724 15.05541108365669
HRBE
1 37855U 11061F 18193.47875409 +.00000886 +00000-0 +53159-4 0 9992
2 37855 101.7152 268.9470 0176217 007.4391 352.9372 15.04527676364985
ALMASAT-1
1 38078U 12006B 18193.88219376 .00028659 39170-5 24998-3 0 9991
2 38078 69.4322 145.5790 0232602 67.1857 326.5966 15.42031750344617
HORYU-2
1 38340U 12025D 18193.30008421 +.00000137 +00000-0 +28236-4 0 9994
2 38340 098.3647 215.8811 0012677 127.1716 233.0652 14.75573133320400
RS-40
1 38735U 12041C 18193.71846898 .00000028 00000-0 13171-3 0 9993
2 38735 82.4762 80.7026 0015825 259.2792 100.6506 12.42576739270190
BEESAT-3
1 39134U 13015E 18193.60964784 +.00000747 +00000-0 +44746-4 0 9993
2 39134 064.8639 044.6683 0009130 216.2018 143.8492 15.19243249288382
BEESAT-2
1 39136U 13015G 18193.65210634 .00000423 00000-0 31877-4 0 9990
2 39136 64.8700 61.0748 0020233 233.5858 126.3402 15.16204379288452
ZACUBE-1
1 39417U 13066B 18193.51683622 +.00000142 +00000-0 +24270-4 0 9991
2 39417 097.5855 220.8011 0060650 072.7697 288.0142 14.80951827250540
TRITON-1
1 39427U 13066M 18193.66204665 .00000147 00000-0 31441-4 0 9997
2 39427 97.6422 187.9041 0114077 176.9647 183.2277 14.67685096248317
GOMX-1
1 39430U 13066Q 18193.88261577 .00000116 00000-0 30367-4 0 9992
2 39430 97.6991 168.9092 0150033 249.2905 109.2160 14.59096686246892
LO-74
1 39440U 13066AA 18193.50049417 +.00000156 +00000-0 +28624-4 0 9996
2 39440 097.6004 207.2325 0081976 112.9085 248.0805 14.75689861248451
AO-73
1 39444U 13066AE 18193.02669397 +.00000214 +00000-0 +32742-4 0 9993
2 39444 097.5863 221.8938 0059736 069.7476 291.0146 14.81736572248748
SPROUT
1 39770U 14029E 18193.76250960 .00000398 00000-0 50721-4 0 9998
2 39770 97.8764 294.5965 0010115 120.6354 239.5835 14.86891099224163
DUCHIFAT-1
1 40021U 14033M 18193.30342697 +.00000268 +00000-0 +33409-4 0 9993
2 40021 097.9155 112.0680 0014516 094.6392 265.6484 14.90335131220697
NANOSATCBR1
1 40024U 14033Q 18193.28978354 +.00000190 +00000-0 +25841-4 0 9993
2 40024 097.9087 110.2476 0013802 096.8599 263.4189 14.89594494220096
EO-79
1 40025U 14033R 18193.48663103 +.00000176 +00000-0 +24837-4 0 9997
2 40025 097.9044 108.8332 0013975 100.4141 259.8651 14.88735557220044
DTUSAT-2
1 40030U 14033W 18193.72721475 .00000182 00000-0 25691-4 0 9993
2 40030 97.8988 107.7359 0013454 95.3016 264.9736 14.88342262220530
EO-80
1 40032U 14033Y 18193.71898602 .00000195 00000-0 27112-4 0 9995
2 40032 97.8996 107.7302 0013346 95.7573 264.5166 14.88279803220523
ANTELSAT
1 40034U 14033AA 18193.25464938 +.00000156 +00000-0 +30657-4 0 9992
2 40034 097.8080 068.9708 0060140 116.5798 244.1591 14.73940350217845
VELOX-1
1 40057U 14034E 18193.84134947 .00000232 00000-0 40167-4 0 9999
2 40057 98.2048 305.3335 0009745 243.0786 116.9425 14.77449161217435
DAURIA DX 1
1 40071U 14037C 18193.81986330 .00000075 00000-0 17166-4 0 9994
2 40071 98.3787 326.3285 0007369 234.4960 125.5573 14.81171130216798
UKUBE-1
1 40074U 14037F 18193.84413815 .00000243 00000-0 36426-4 0 9990
2 40074 98.3906 332.4024 0003657 228.1957 131.8949 14.83823021217103
HODOYOSHI-1
1 40299U 14070B 18193.75479547 .00000502 00000-0 24312-4 0 9999
2 40299 97.3771 275.0773 0013583 154.2973 304.8076 15.22940745204375
CHUBUSAT-1
1 40300U 14070C 18193.68343703 .00000529 00000-0 26389-4 0 9993
2 40300 97.3622 270.8324 0020277 168.9697 343.8194 15.21615139204156
QSAT-EOS
1 40301U 14070D 18193.85639539 .00001335 00000-0 56144-4 0 9996
2 40301 97.3592 272.4022 0026896 158.6721 337.6656 15.24841907204334
FIREBIRD FU3
1 40377U 15003B 18193.70839131 .00001233 00000-0 54020-4 0 9998
2 40377 99.0847 100.5151 0131572 145.4024 215.5854 15.17307796190198
FIREBIRD FU4
1 40378U 15003C 18193.69709053 .00001216 00000-0 53311-4 0 9999
2 40378 99.0848 100.5606 0131791 145.3269 215.6640 15.17316983190190
GRIFEX
1 40379U 15003D 18193.45036002 +.00000766 +00000-0 +37703-4 0 9997
2 40379 099.0873 096.2835 0138560 159.1438 201.5519 15.14401259189911
NO-84
1 40654U 15025D 18193.47550317 +.00008372 +00000-0 +13518-3 0 03519
2 40654 054.9922 282.0300 0157250 172.5885 187.7470 15.41159533059749
NO-83
1 40655U 15025E 18193.34597310 +.00013179 +00000-0 +13748-3 0 04078
2 40655 054.9752 222.7374 0102826 207.3655 152.1907 15.58560955060200
DEORBITSAIL
1 40719U 15032E 18193.25962841 +.00000293 +00000-0 +49464-4 0 9996
2 40719 097.9425 086.3654 0015917 332.5454 027.4913 14.76463122161875
NUDT-PHONESAT
1 40900U 15049B 18193.75883091 .00001614 00000-0 74891-4 0 9990
2 40900 97.4406 201.7162 0011884 304.6474 55.3641 15.21432589155807
XW-2A
1 40903U 15049E 18193.76859208 .00001446 00000-0 37580-4 0 9994
2 40903 97.3822 228.8769 0012548 301.9959 58.0067 15.40601478157743
XW-2C
1 40906U 15049H 18193.74333898 .00000470 00000-0 28490-4 0 9993
2 40906 97.4598 196.7666 0013611 305.4684 54.5277 15.15232006155361
XW-2D
1 40907U 15049J 18193.75925300 .00000512 00000-0 30570-4 0 9999
2 40907 97.4572 196.4762 0012923 303.1186 56.8806 15.15386178155379
LILACSAT-2
1 40908U 15049K 18193.73085337 .00000254 00000-0 17807-4 0 9996
2 40908 97.4685 195.7740 0014644 304.9244 55.0611 15.13536416155239
